Weather History for K6R6 - April, 2013

Change the Weather History Date:

Thursday, April 18, 2013

  Actual Average (KFST) Record (KFST)
Temperature  
Mean Temperature 67 °F -  
Max Temperature 80 °F 81 °F 96 °F (2011)
Min Temperature 53 °F 52 °F 39 °F (2008)
Cooling Degree Days 2    
Growing Degree Days 17 (Base 50)    
Moisture  
Dew Point 31 °F    
Average Humidity 31    
Maximum Humidity 76    
Minimum Humidity 13    
Precipitation  
Precipitation 0.00 in - - ()
Sea Level Pressure  
Sea Level Pressure 29.85 in    
Wind  
Wind Speed 14 mph (North)    
Max Wind Speed 26 mph    
Max Gust Speed 46 mph    
Averages and records for this station are not official NWS values.
T = Trace of Precipitation, MM = Missing Value Source: NWS Daily Summary

Daily Weather History Graph

Daily Weather History Graph

Search for Another Location

Airport or City:

Trip Planner

Search our weather history database for the weather conditions in past years. The results will help you decide how hot, cold, wet, or windy it might be!

Date:

Astronomy

Apr. 18, 2013 Rise Set
Actual Time 7:18 AM CDT 8:18 PM CDT
Civil Twilight 6:53 AM CDT 8:42 PM CDT
Nautical Twilight 6:24 AM CDT 9:12 PM CDT
Astronomical Twilight 5:54 AM CDT 9:42 PM CDT
Moon 1:36 PM CDT (4/18) 2:28 AM CDT (4/18)
Length of Visible Light 13h 49m
Length of Day
12h 59m
First Quarter, 52% of the Moon is Illuminated
Apr 18
First Quarter
Apr 25
Full
May 2
Last Quarter
May 9
New
May 17
First Quarter

Hourly Weather History & Observations

Time (CDT) Temp. Dew Point Humidity Pressure Visibility Wind Dir Wind Speed Gust Speed Precip Events Conditions
12:53 AM 75.0 °F 66.9 °F 76% 29.55 in - East 6.9 mph - N/A   Unknown
1:53 AM 75.9 °F 68.0 °F 76% 29.60 in - North 16.1 mph 24.2 mph N/A   Unknown
2:04 AM 77.0 °F 68.0 °F 74% 29.72 in - NNW 6.9 mph 18.4 mph N/A   Unknown
2:53 AM 79.0 °F 25.0 °F 14% 29.58 in - NNW 26.5 mph 38.0 mph N/A   Unknown
3:53 AM 75.9 °F 21.0 °F 13% 29.59 in - NNW 20.7 mph 46.0 mph N/A   Unknown
4:53 AM 66.0 °F 30.9 °F 27% 29.68 in - North 21.9 mph 32.2 mph N/A   Unknown
5:53 AM 62.1 °F 32.0 °F 32% 29.73 in - North 19.6 mph 27.6 mph N/A   Unknown
6:53 AM 57.9 °F 32.0 °F 37% 29.78 in - North 24.2 mph 40.3 mph N/A   Unknown
7:53 AM 55.0 °F 34.0 °F 45% 29.86 in - North 17.3 mph 25.3 mph N/A   Unknown
8:53 AM 55.0 °F 33.1 °F 43% 29.91 in - North 12.7 mph 24.2 mph N/A   Unknown
9:53 AM 57.9 °F 32.0 °F 37% 29.93 in - North 12.7 mph 20.7 mph N/A   Unknown
10:53 AM 59.0 °F 30.0 °F 33% 29.95 in - North 13.8 mph 24.2 mph N/A   Unknown
11:53 AM 62.1 °F 28.9 °F 29% 29.96 in - North 17.3 mph 24.2 mph N/A   Unknown
12:53 PM 63.0 °F 27.0 °F 26% 29.95 in - North 10.4 mph 21.9 mph N/A   Unknown
1:53 PM 66.9 °F 27.0 °F 22% 29.91 in - North 11.5 mph 21.9 mph N/A   Unknown
2:53 PM 69.1 °F 26.1 °F 20% 29.89 in - North 16.1 mph 24.2 mph N/A   Unknown
3:53 PM 70.0 °F 26.1 °F 19% 29.87 in - NNW 13.8 mph - N/A   Unknown
4:53 PM 71.1 °F 24.1 °F 17% 29.87 in - NNE 15.0 mph 23.0 mph N/A   Unknown
5:53 PM 71.1 °F 23.0 °F 16% 29.89 in - North 11.5 mph 21.9 mph N/A   Unknown
6:53 PM 70.0 °F 21.9 °F 16% 29.91 in - North 12.7 mph 19.6 mph N/A   Unknown
7:53 PM 66.9 °F 21.0 °F 17% 29.94 in - NNE 11.5 mph - N/A   Unknown
8:53 PM 62.1 °F 21.0 °F 21% 29.97 in - NE 8.1 mph - N/A   Unknown
9:53 PM 59.0 °F 19.9 °F 22% 30.01 in - North 9.2 mph - N/A   Unknown
10:53 PM 57.9 °F 18.0 °F 21% 30.03 in - North 8.1 mph - N/A   Unknown
11:53 PM 53.1 °F 18.0 °F 25% 30.07 in - North 5.8 mph - N/A   Unknown